Location: Burla
(50.9568°N, 10.4983°E)
Time: 07:03:22
(UTC+00:00)

COSMOS 2406 - Pass Details

Date: 18 January 2026
Orbit: 843 x 861 km, 71.0° (Epoch: 17 February)

Event Time Altitude Azimuth Distance (km) Brightness Sun altitude
Exits shadow 05:57:54 - 321° (NW) 2,545 5.2 -11.3°
Reaches altitude 10° 05:58:01 10° 321° (NW) 2,498 5.1 -11.3°
Maximum altitude 06:03:28 46° 250° (WSW) 1,142 3.6 -10.5°
Drops below altitude 10° 06:08:54 10° 179° (S) 2,490 5.9 -9.7°
Sets 06:11:26 0° 173° (S) 3,423 6.8 -9.3°
